Location: Unspecified
(0.0000°N, 0.0000°E)
Time: 21:26:04
(UTC+00:00)

BlueWalker 3 - Pass Details

Date: 28 May 2023
Orbit: 494 x 513 km, 53.2° (Epoch: 05 June)

Event Time Altitude Azimuth Distance (km) Brightness Sun altitude
Rises 18:17:17 0° 213° (SSW) 2,568 5.7 -4.6°
Reaches altitude 10° 18:19:27 10° 213° (SSW) 1,683 4.8 -5.1°
Maximum altitude 18:23:15 87° 127° (SE) 496 1.9 -6.0°
Drops below altitude 10° 18:27:03 10° 35° (NE) 1,677 4.5 -6.9°
Sets 18:29:13 0° 34° (NE) 2,557 5.4 -7.4°
